When you browse on this site, cookies collect data to enhance your experience and personalize the content and advertising you see.
Visit our Privacy Policy to learn more. By continuing to use the site, you agree to this use of cookies and data.

Stündliche Wetter Bretyanka

Heute, 3 August, Montag

Zeit Temperatur Niederschläge Wind Luftdruck Luftfeuchtigkeit
00:00 +14°C° 0 mm 2 m/S 739 mmHg 81%
01:00 +14°C° 0 mm 2 m/S 739 mmHg 83%
02:00 +14°C° 0 mm 2 m/S 739 mmHg 86%
03:00 +13°C° 0 mm 2 m/S 739 mmHg 86%
04:00 +13°C° 0 mm 2 m/S 739 mmHg 86%
05:00 +13°C° 0 mm 2 m/S 739 mmHg 87%
06:00 +14°C° 0 mm 3 m/S 739 mmHg 83%
07:00 +17°C° 0 mm 3 m/S 739 mmHg 79%
08:00 +18°C° 0 mm 3 m/S 739 mmHg 76%
09:00 +20°C° 0 mm 4 m/S 739 mmHg 72%
10:00 +21°C° 0 mm 4 m/S 739 mmHg 68%
11:00 +23°C° 0 mm 4 m/S 739 mmHg 64%
12:00 +23°C° 0.1 mm 4 m/S 739 mmHg 62%
13:00 +25°C° 0.1 mm 4 m/S 739 mmHg 60%
14:00 +25°C° 0.1 mm 4 m/S 738 mmHg 58%
15:00 +25°C° 0.1 mm 4 m/S 738 mmHg 60%
16:00 +25°C° 0.1 mm 4 m/S 738 mmHg 63%
17:00 +23°C° 0.1 mm 4 m/S 738 mmHg 65%
18:00 +22°C° 0 mm 4 m/S 738 mmHg 71%
19:00 +20°C° 0 mm 3 m/S 738 mmHg 76%
20:00 +19°C° 0 mm 3 m/S 737 mmHg 82%
21:00 +18°C° 0 mm 3 m/S 737 mmHg 83%
22:00 +17°C° 0 mm 3 m/S 737 mmHg 83%
23:00 +16°C° 0 mm 3 m/S 737 mmHg 84%

Morgen, 4 August, Dienstag

Zeit Temperatur Niederschläge Wind Luftdruck Luftfeuchtigkeit
00:00 +15°C° 0 mm 4 m/S 737 mmHg 84%
01:00 +15°C° 0 mm 4 m/S 737 mmHg 85%
02:00 +15°C° 0 mm 4 m/S 737 mmHg 85%
03:00 +15°C° 0 mm 4 m/S 737 mmHg 87%
04:00 +14°C° 0 mm 4 m/S 737 mmHg 88%
05:00 +14°C° 0 mm 4 m/S 736 mmHg 90%
06:00 +15°C° 0 mm 4 m/S 736 mmHg 86%
07:00 +16°C° 0 mm 5 m/S 737 mmHg 82%
08:00 +17°C° 0 mm 5 m/S 737 mmHg 78%
09:00 +19°C° 0 mm 5 m/S 737 mmHg 76%
10:00 +20°C° 0 mm 4 m/S 737 mmHg 75%
11:00 +21°C° 0 mm 4 m/S 737 mmHg 73%
12:00 +21°C° 0 mm 4 m/S 737 mmHg 72%
13:00 +22°C° 0 mm 5 m/S 737 mmHg 71%
14:00 +23°C° 0 mm 5 m/S 737 mmHg 70%
15:00 +23°C° 0 mm 4 m/S 737 mmHg 72%
16:00 +23°C° 0 mm 4 m/S 736 mmHg 73%
17:00 +24°C° 0 mm 3 m/S 736 mmHg 75%
18:00 +24°C° 0.2 mm 3 m/S 737 mmHg 76%
19:00 +22°C° 0.2 mm 4 m/S 737 mmHg 77%
20:00 +22°C° 0.2 mm 4 m/S 737 mmHg 78%
21:00 +21°C° 1 mm 4 m/S 737 mmHg 83%
22:00 +20°C° 1 mm 3 m/S 738 mmHg 87%
23:00 +19°C° 1 mm 3 m/S 738 mmHg 92%

übermorgen, 5 August, Mittwoch

Zeit Temperatur Niederschläge Wind Luftdruck Luftfeuchtigkeit
00:00 +19°C° 0.9 mm 3 m/S 738 mmHg 94%
01:00 +18°C° 0.9 mm 2 m/S 739 mmHg 95%
02:00 +18°C° 0.9 mm 2 m/S 739 mmHg 97%
03:00 +17°C° 0.6 mm 2 m/S 739 mmHg 97%
04:00 +17°C° 0.6 mm 2 m/S 739 mmHg 97%
05:00 +17°C° 0.6 mm 2 m/S 740 mmHg 97%
06:00 +17°C° 0.3 mm 2 m/S 740 mmHg 96%
07:00 +18°C° 0.3 mm 3 m/S 741 mmHg 95%
08:00 +18°C° 0.3 mm 3 m/S 741 mmHg 94%
09:00 +18°C° 0 mm 3 m/S 741 mmHg 92%
10:00 +19°C° 0 mm 3 m/S 742 mmHg 89%
11:00 +19°C° 0 mm 3 m/S 742 mmHg 87%
12:00 +20°C° 0 mm 3 m/S 742 mmHg 85%
13:00 +20°C° 0 mm 3 m/S 743 mmHg 83%
14:00 +21°C° 0 mm 3 m/S 743 mmHg 80%
15:00 +21°C° 0 mm 3 m/S 743 mmHg 80%
16:00 +21°C° 0 mm 2 m/S 743 mmHg 79%
17:00 +21°C° 0 mm 2 m/S 743 mmHg 78%
18:00 +21°C° 0 mm 2 m/S 744 mmHg 82%
19:00 +20°C° 0 mm 2 m/S 744 mmHg 85%
20:00 +20°C° 0 mm 1 m/S 744 mmHg 89%
21:00 +18°C° 0 mm 2 m/S 744 mmHg 89%
22:00 +17°C° 0 mm 2 m/S 745 mmHg 89%
23:00 +17°C° 0 mm 2 m/S 745 mmHg 89%

6 August, Donnerstag

Zeit Temperatur Niederschläge Wind Luftdruck Luftfeuchtigkeit
00:00 +16°C° 0 mm 2 m/S 745 mmHg 89%
01:00 +16°C° 0 mm 2 m/S 745 mmHg 89%
02:00 +15°C° 0 mm 2 m/S 745 mmHg 89%
03:00 +15°C° 0 mm 2 m/S 746 mmHg 89%
04:00 +14°C° 0 mm 2 m/S 746 mmHg 88%
05:00 +14°C° 0 mm 2 m/S 746 mmHg 87%
06:00 +14°C° 0 mm 3 m/S 746 mmHg 83%
07:00 +17°C° 0 mm 3 m/S 747 mmHg 79%
08:00 +18°C° 0 mm 3 m/S 747 mmHg 76%
09:00 +20°C° 0 mm 3 m/S 747 mmHg 72%
10:00 +21°C° 0 mm 3 m/S 747 mmHg 68%
11:00 +24°C° 0 mm 3 m/S 748 mmHg 64%
12:00 +25°C° 0 mm 3 m/S 748 mmHg 62%
13:00 +25°C° 0 mm 3 m/S 748 mmHg 61%
14:00 +26°C° 0 mm 4 m/S 748 mmHg 59%
15:00 +26°C° 0 mm 3 m/S 747 mmHg 59%
16:00 +25°C° 0 mm 3 m/S 747 mmHg 60%
17:00 +25°C° 0 mm 3 m/S 747 mmHg 60%
18:00 +22°C° 0 mm 3 m/S 747 mmHg 65%
19:00 +20°C° 0 mm 3 m/S 748 mmHg 70%
20:00 +18°C° 0 mm 3 m/S 748 mmHg 75%
21:00 +17°C° 0 mm 2 m/S 748 mmHg 76%
22:00 +16°C° 0 mm 2 m/S 748 mmHg 77%
23:00 +15°C° 0 mm 2 m/S 748 mmHg 78%

7 August, Freitag

Zeit Temperatur Niederschläge Wind Luftdruck Luftfeuchtigkeit
00:00 +15°C° 0 mm 2 m/S 748 mmHg 80%
01:00 +15°C° 0 mm 2 m/S 748 mmHg 81%
02:00 +14°C° 0 mm 2 m/S 749 mmHg 83%
03:00 +14°C° 0 mm 2 m/S 749 mmHg 85%
04:00 +14°C° 0 mm 2 m/S 749 mmHg 87%
05:00 +14°C° 0 mm 2 m/S 749 mmHg 89%
06:00 +15°C° 0 mm 2 m/S 749 mmHg 85%
07:00 +17°C° 0 mm 2 m/S 749 mmHg 80%
08:00 +19°C° 0 mm 3 m/S 750 mmHg 76%
09:00 +20°C° 0 mm 3 m/S 750 mmHg 70%
10:00 +22°C° 0 mm 3 m/S 750 mmHg 64%
11:00 +25°C° 0 mm 3 m/S 750 mmHg 58%
12:00 +25°C° 0 mm 3 m/S 750 mmHg 56%
13:00 +26°C° 0 mm 3 m/S 749 mmHg 55%
14:00 +26°C° 0 mm 3 m/S 749 mmHg 54%
15:00 +26°C° 0 mm 3 m/S 749 mmHg 56%
16:00 +26°C° 0 mm 3 m/S 749 mmHg 58%
17:00 +25°C° 0 mm 3 m/S 748 mmHg 60%
18:00 +24°C° 0 mm 3 m/S 748 mmHg 67%
19:00 +21°C° 0 mm 2 m/S 748 mmHg 73%
20:00 +19°C° 0 mm 2 m/S 748 mmHg 80%
21:00 +18°C° 0 mm 2 m/S 748 mmHg 83%
22:00 +18°C° 0 mm 2 m/S 748 mmHg 86%
23:00 +17°C° 0 mm 2 m/S 748 mmHg 90%

8 August, Samstag

Zeit Temperatur Niederschläge Wind Luftdruck Luftfeuchtigkeit
00:00 +16°C° 0 mm 2 m/S 748 mmHg 90%
01:00 +16°C° 0 mm 2 m/S 748 mmHg 91%
02:00 +16°C° 0 mm 1 m/S 748 mmHg 92%
03:00 +15°C° 0 mm 2 m/S 748 mmHg 92%
04:00 +15°C° 0 mm 2 m/S 748 mmHg 92%
05:00 +15°C° 0 mm 2 m/S 747 mmHg 93%
06:00 +16°C° 0 mm 2 m/S 747 mmHg 88%
07:00 +18°C° 0 mm 2 m/S 748 mmHg 83%
08:00 +19°C° 0 mm 2 m/S 748 mmHg 78%
09:00 +21°C° 0 mm 2 m/S 747 mmHg 72%
10:00 +23°C° 0 mm 2 m/S 747 mmHg 66%
11:00 +24°C° 0 mm 2 m/S 747 mmHg 61%
12:00 +25°C° 0 mm 2 m/S 747 mmHg 58%
13:00 +26°C° 0 mm 2 m/S 746 mmHg 56%
14:00 +26°C° 0 mm 1 m/S 746 mmHg 53%
15:00 +26°C° 0 mm 1 m/S 746 mmHg 54%
16:00 +26°C° 0 mm 1 m/S 745 mmHg 55%
17:00 +26°C° 0 mm 1 m/S 745 mmHg 56%
18:00 +24°C° 0.1 mm 1 m/S 745 mmHg 63%
19:00 +22°C° 0.1 mm 1 m/S 745 mmHg 71%
20:00 +20°C° 0.1 mm 1 m/S 744 mmHg 78%
21:00 +20°C° 0.1 mm 1 m/S 744 mmHg 80%
22:00 +19°C° 0.1 mm 1 m/S 744 mmHg 83%
23:00 +19°C° 0.1 mm 1 m/S 744 mmHg 85%
Mehr zeigen